Meteo Giornale » Osservazioni meteo Svizzera » Sion

ore: 22:20 - Osservazioni Meteo Sion
Lat. 46° 13' N Lon. 7° 20' E Alt. 482 metri s.l.m.

sereno Europe/Zurich

18 °C

Sereno

Temp. 24 Ore

13 °C

23 °C

Nord

0 Km/h

Dew point 14 °C

Umidità 77 %

Visibilità  10 Km

Il sole sorge alle ore 06:35

Il sole tramonta alle ore 20:31

Data e Ora Cielo e Fenomeni T °C DP °C Um. % Pres. hPa Vis. km Vento km/h
Oggi h: 22:20 sereno Sereno 18 14 77 1023 10 N 0
Oggi h: 21:50 sereno Sereno 18 13 72 1023 10 N 1.8
Oggi h: 21:20 sereno Sereno 19 13 68 1023 10 N 5.5
Oggi h: 20:50 sereno Sereno 19 14 72 1022 10 O 7.4
Oggi h: 20:20 sereno Sereno 19 14 72 1022 10 O/SO 13
Oggi h: 19:50 nuvoloso Nuvoloso 20 14 68 1022 10 O 14.8
Oggi h: 19:20 molto_nuvoloso Molto Nuvoloso 20 14 68 1021 10 O 20.3
Oggi h: 18:50 molto_nuvoloso Molto Nuvoloso 21 14 64 1021 10 O 22.2
Oggi h: 18:20 molto_nuvoloso Molto Nuvoloso 21 14 64 1021 10 O/SO 24
Oggi h: 17:50 molto_nuvoloso Molto Nuvoloso 21 14 64 1021 10 O/SO 25.9
Oggi h: 17:20 nuvoloso Nuvoloso 22 14 60 1021 10 O 27.8
Oggi h: 16:50 nuvoloso Nuvoloso 23 14 56 1021 10 O 27.8
Oggi h: 16:20 nuvoloso Nuvoloso 22 14 60 1021 10 O/SO 27.8
Oggi h: 15:50 nuvoloso Nuvoloso 23 14 56 1021 10 O 24
Oggi h: 15:20 poco_nuvoloso Poco Nuvoloso 22 14 60 1021 10 O/SO 20.3
Oggi h: 14:50 poco_nuvoloso Poco Nuvoloso 23 15 60 1022 10 O/SO 16.7
Oggi h: 14:20 poco_nuvoloso Poco Nuvoloso 23 14 56 1022 10 N 7.4
Oggi h: 13:50 poco_nuvoloso Poco Nuvoloso 22 12 53 1023 10 N 5.5
Oggi h: 13:20 poco_nuvoloso Poco Nuvoloso 22 13 56 1023 10 N 5.5
Oggi h: 12:50 poco_nuvoloso Poco Nuvoloso 21 12 56 1023 10 N 5.5
Oggi h: 12:20 poco_nuvoloso Poco Nuvoloso 21 12 56 1024 10 N 5.5
Oggi h: 11:50 nuvoloso Nuvoloso 20 13 64 1024 10 N 5.5
Oggi h: 11:20 nuvoloso Nuvoloso 19 12 63 1025 0 N 3.7
Oggi h: 10:50 sereno Sereno 18 13 72 1025 0 E 9.3
Oggi h: 10:20 sereno Sereno 17 13 77 1025 0 E 7.4
Oggi h: 09:50 nuvoloso Nuvoloso 17 13 77 1026 10 N 5.5
Oggi h: 09:20 sereno Sereno 16 13 82 1026 10 N 5.5
Oggi h: 08:50 nuvoloso Nuvoloso 15 13 87 1026 10 E 7.4
Oggi h: 08:20 nuvoloso Nuvoloso 15 13 87 1026 10 E/NE 9.3
Oggi h: 07:50 nuvoloso Nuvoloso 14 13 93 1026 10 N 3.7
Oggi h: 07:20 molto_nuvoloso Molto Nuvoloso 14 13 93 1026 10 E 7.4
Oggi h: 06:50 molto_nuvoloso Molto Nuvoloso 14 13 93 1026 10 E 7.4
Oggi h: 06:20 coperto Coperto 14 13 93 1026 10 N 5.5
Oggi h: 05:50 molto_nuvoloso Molto Nuvoloso 14 13 93 1026 10 N 3.7
Oggi h: 05:20 coperto Coperto 14 13 93 1026 10 N 5.5
Oggi h: 04:50 molto_nuvoloso Molto Nuvoloso 14 14 100 1026 10 E 7.4
Oggi h: 04:20 molto_nuvoloso Molto Nuvoloso 14 14 100 1026 10 N 1.8
Oggi h: 03:50 molto_nuvoloso Molto Nuvoloso 13 13 100 1026 10 N 1.8
Oggi h: 03:20 nuvoloso Nuvoloso 14 14 100 1026 10 N 0
Oggi h: 02:50 sereno Sereno 14 14 100 1026 10 N 0
Oggi h: 02:20 sereno Sereno 13 13 100 1027 10 N 0
Oggi h: 01:50 sereno Sereno 13 13 100 1027 10 N 0
Oggi h: 01:20 sereno Sereno 13 13 100 1027 10 N 0
Oggi h: 00:50 sereno Sereno 13 13 100 1027 10 N 0
Oggi h: 00:20 sereno Sereno 13 13 100 1027 10 N 1.8
Ieri h: 23:50 sereno Sereno 13 13 100 1026 10 N 1.8
Ieri h: 23:20 sereno Sereno 13 13 100 1026 10 N 3.7
Ieri h: 22:50 coperto_pioggia Pioggia Debole 13 13 100 1026 10 N 3.7